Location: Anne Acres
(38.7004°N, 75.0827°W)
Time: 23:56:35
(UTC+00:00)

Altair - Pass Details

Date: 09 November 2024
Orbit: 1501 x 1683 km, 47.2° (Epoch: 03 December)

Event Time Altitude Azimuth Distance (km) Brightness Sun altitude
Rises 01:05:51 0° 291° (WNW) 4,677 10.9 -37.9°
Reaches altitude 10° 01:10:01 10° 274° (W) 3,716 10.2 -38.8°
Maximum altitude 01:15:57 19° 234° (SW) 3,107 9.4 -39.9°
Drops below altitude 10° 01:22:01 10° 194° (SSW) 3,796 9.5 -41.1°
Enters shadow 01:23:50 - 186° (S) 4,187 9.7 -41.4°
